This is the latest recevied weather packets stored in our database for station/object PD2BVG. If no packets are shown the sender has not sent any weather packets the latest 1 day(s).
| Time | Temp. | Humidity | Pressure | Rain* | Wind** | Luminosity | Snow |
|---|---|---|---|---|---|---|---|
| 1778008471 | 11.67° C | 80% | 1010.9 hPa | 0 mm | 3.13 m/s, 333° | 0 W/m² | - |
| 1778008422 | 11.67° C | 79% | 1010.9 hPa | 0 mm | 3.58 m/s, 11° | 0 W/m² | - |
| 1778008353 | 11.67° C | 79% | 1010.9 hPa | 0 mm | 4.47 m/s, 350° | 0 W/m² | - |
| 1778008292 | 11.67° C | 79% | 1010.8 hPa | 0 mm | 4.47 m/s, 0° | 0 W/m² | - |
| 1778008232 | 11.67° C | 79% | 1010.9 hPa | 0 mm | 4.92 m/s, 0° | 0 W/m² | - |
| 1778008171 | 11.67° C | 80% | 1010.7 hPa | 0 mm | 4.02 m/s, 347° | 5 W/m² | - |
| 1778008112 | 11.67° C | 80% | 1010.8 hPa | 0 mm | 4.02 m/s, 348° | 5 W/m² | - |
| 1778008051 | 11.67° C | 80% | 1010.8 hPa | 0 mm | 4.02 m/s, 0° | 5 W/m² | - |
| 1778007992 | 11.67° C | 80% | 1010.8 hPa | 0 mm | 4.02 m/s, 358° | 5 W/m² | - |
| 1778007936 | 11.67° C | 80% | 1010.8 hPa | 0 mm | 3.58 m/s, 353° | 7 W/m² | - |
| 1778007875 | 11.67° C | 80% | 1010.7 hPa | 0 mm | 3.58 m/s, 330° | 7 W/m² | - |
| 1778007817 | 11.67° C | 80% | 1010.7 hPa | 0 mm | 4.92 m/s, 336° | 7 W/m² | - |
| 1778007754 | 11.67° C | 80% | 1010.7 hPa | 0 mm | 5.36 m/s, 313° | 7 W/m² | - |
| 1778007634 | 11.67° C | 80% | 1010.7 hPa | 0 mm | 4.47 m/s, 358° | 7 W/m² | - |
| 1778007574 | 11.67° C | 80% | 1010.7 hPa | 0 mm | 4.02 m/s, 331° | 9 W/m² | - |
| 1778007513 | 11.67° C | 80% | 1010.6 hPa | 0 mm | 4.47 m/s, 314° | 9 W/m² | - |
| 1778007452 | 11.67° C | 80% | 1010.7 hPa | 0 mm | 4.47 m/s, 338° | 11 W/m² | - |
| 1778007392 | 11.67° C | 80% | 1010.7 hPa | 0 mm | 4.47 m/s, 355° | 11 W/m² | - |
| 1778007332 | 11.67° C | 80% | 1010.7 hPa | 0 mm | 4.92 m/s, 355° | 11 W/m² | - |
| 1778007272 | 11.67° C | 80% | 1010.7 hPa | 0 mm | 4.92 m/s, 341° | 12 W/m² | - |
| 1778007211 | 11.67° C | 80% | 1010.6 hPa | 0 mm | 4.02 m/s, 329° | 12 W/m² | - |
| 1778007152 | 11.67° C | 80% | 1010.7 hPa | 0 mm | 4.02 m/s, 327° | 14 W/m² | - |
| 1778007091 | 11.67° C | 79% | 1010.6 hPa | 0 mm | 4.02 m/s, 344° | 14 W/m² | - |
| 1778007032 | 11.67° C | 79% | 1010.7 hPa | 0 mm | 4.92 m/s, 340° | 14 W/m² | - |
| 1778006972 | 11.67° C | 79% | 1010.6 hPa | 0 mm | 5.36 m/s, 354° | 16 W/m² | - |
* Rain latest hour (hover to see other rain measurements)
** Current wind speed in m/s (hover to see current wind gust speed)